When you browse on this site, cookies collect data to enhance your experience and personalize the content and advertising you see.
Visit our Privacy Policy to learn more. By continuing to use the site, you agree to this use of cookies and data.
  • In Österreich
  • Länderverzeichnis
  • Für 7 Tage
  • Wassertemperatur
  • Satellitenkarten
  • Wetterkarte
  • News
  • Widgets
  • user-avatar
    Anmelden

    Stündliche Wetter Pogrebische

    Heute, 21 Juli, Sonntag

    Zeit Temperatur Niederschläge Wind Luftdruck Luftfeuchtigkeit
    00:00 +19°C° 0.2 mm 1 m/S 744 mmHg 81%
    01:00 +17°C° 0.2 mm 2 m/S 744 mmHg 83%
    02:00 +18°C° 0 mm 1 m/S 744 mmHg 83%
    03:00 +18°C° 0.1 mm 1 m/S 744 mmHg 84%
    04:00 +18°C° 0.1 mm 1 m/S 744 mmHg 85%
    05:00 +18°C° 0.1 mm 1 m/S 744 mmHg 87%
    06:00 +19°C° 0.1 mm 1 m/S 744 mmHg 82%
    07:00 +21°C° 0.1 mm 1 m/S 744 mmHg 77%
    08:00 +21°C° 0 mm 0 m/S 744 mmHg 72%
    09:00 +22°C° 0 mm 0 m/S 744 mmHg 67%
    10:00 +26°C° 0 mm 1 m/S 744 mmHg 62%
    11:00 +27°C° 0 mm 1 m/S 744 mmHg 57%
    12:00 +28°C° 0.2 mm 1 m/S 744 mmHg 55%
    13:00 +28°C° 0.2 mm 2 m/S 744 mmHg 54%
    14:00 +28°C° 0.2 mm 2 m/S 743 mmHg 53%
    15:00 +28°C° 0 mm 2 m/S 743 mmHg 54%
    16:00 +28°C° 0 mm 1 m/S 743 mmHg 55%
    17:00 +28°C° 0 mm 1 m/S 743 mmHg 56%
    18:00 +26°C° 0.1 mm 1 m/S 743 mmHg 62%
    19:00 +24°C° 0.1 mm 1 m/S 743 mmHg 69%
    20:00 +23°C° 0.1 mm 1 m/S 743 mmHg 76%
    21:00 +22°C° 0 mm 1 m/S 743 mmHg 78%
    22:00 +21°C° 0 mm 1 m/S 743 mmHg 81%
    23:00 +20°C° 0 mm 1 m/S 743 mmHg 83%

    Morgen, 22 Juli, Montag

    Zeit Temperatur Niederschläge Wind Luftdruck Luftfeuchtigkeit
    00:00 +20°C° 0 mm 1 m/S 743 mmHg 84%
    01:00 +20°C° 0 mm 1 m/S 743 mmHg 86%
    02:00 +20°C° 0 mm 1 m/S 743 mmHg 87%
    03:00 +20°C° 0 mm 1 m/S 743 mmHg 88%
    04:00 +18°C° 0 mm 2 m/S 742 mmHg 88%
    05:00 +18°C° 0 mm 2 m/S 742 mmHg 89%
    06:00 +19°C° 0.2 mm 2 m/S 742 mmHg 87%
    07:00 +21°C° 0.2 mm 3 m/S 742 mmHg 85%
    08:00 +22°C° 0.2 mm 4 m/S 742 mmHg 83%
    09:00 +22°C° 0.1 mm 4 m/S 742 mmHg 82%
    10:00 +23°C° 0.1 mm 4 m/S 742 mmHg 81%
    11:00 +23°C° 0.1 mm 5 m/S 742 mmHg 80%
    12:00 +25°C° 0.1 mm 5 m/S 742 mmHg 77%
    13:00 +25°C° 0.1 mm 5 m/S 742 mmHg 74%
    14:00 +26°C° 0.1 mm 5 m/S 742 mmHg 71%
    15:00 +26°C° 0.3 mm 5 m/S 742 mmHg 71%
    16:00 +25°C° 0.3 mm 5 m/S 742 mmHg 71%
    17:00 +24°C° 0.3 mm 6 m/S 742 mmHg 72%
    18:00 +23°C° 0 mm 5 m/S 742 mmHg 77%
    19:00 +21°C° 0 mm 4 m/S 742 mmHg 83%
    20:00 +20°C° 0 mm 3 m/S 742 mmHg 88%
    21:00 +19°C° 0 mm 3 m/S 742 mmHg 90%
    22:00 +19°C° 0 mm 3 m/S 742 mmHg 92%
    23:00 +18°C° 0 mm 3 m/S 742 mmHg 94%

    übermorgen, 23 Juli, Dienstag

    Zeit Temperatur Niederschläge Wind Luftdruck Luftfeuchtigkeit
    00:00 +18°C° 0 mm 3 m/S 742 mmHg 93%
    01:00 +18°C° 0 mm 3 m/S 742 mmHg 93%
    02:00 +17°C° 0 mm 3 m/S 742 mmHg 93%
    03:00 +17°C° 0 mm 3 m/S 742 mmHg 93%
    04:00 +17°C° 0 mm 3 m/S 742 mmHg 93%
    05:00 +16°C° 0 mm 3 m/S 742 mmHg 93%
    06:00 +17°C° 0 mm 4 m/S 742 mmHg 89%
    07:00 +18°C° 0 mm 4 m/S 742 mmHg 84%
    08:00 +19°C° 0 mm 4 m/S 742 mmHg 80%
    09:00 +20°C° 0 mm 4 m/S 742 mmHg 75%
    10:00 +21°C° 0 mm 4 m/S 742 mmHg 71%
    11:00 +22°C° 0 mm 5 m/S 742 mmHg 66%
    12:00 +22°C° 0 mm 5 m/S 742 mmHg 63%
    13:00 +23°C° 0 mm 5 m/S 741 mmHg 59%
    14:00 +23°C° 0 mm 5 m/S 741 mmHg 56%
    15:00 +23°C° 0 mm 5 m/S 741 mmHg 58%
    16:00 +23°C° 0 mm 5 m/S 741 mmHg 60%
    17:00 +22°C° 0 mm 5 m/S 741 mmHg 62%
    18:00 +21°C° 0.1 mm 4 m/S 741 mmHg 69%
    19:00 +19°C° 0.1 mm 4 m/S 741 mmHg 76%
    20:00 +18°C° 0.1 mm 3 m/S 741 mmHg 83%
    21:00 +17°C° 0 mm 3 m/S 741 mmHg 85%
    22:00 +16°C° 0 mm 3 m/S 741 mmHg 88%
    23:00 +16°C° 0 mm 2 m/S 741 mmHg 91%

    24 Juli, Mittwoch

    Zeit Temperatur Niederschläge Wind Luftdruck Luftfeuchtigkeit
    00:00 +15°C° 0 mm 2 m/S 741 mmHg 92%
    01:00 +15°C° 0 mm 2 m/S 740 mmHg 94%
    02:00 +14°C° 0 mm 2 m/S 740 mmHg 95%
    03:00 +14°C° 0 mm 2 m/S 740 mmHg 96%
    04:00 +14°C° 0 mm 2 m/S 740 mmHg 96%
    05:00 +14°C° 0 mm 2 m/S 740 mmHg 96%
    06:00 +14°C° 0 mm 3 m/S 740 mmHg 92%
    07:00 +17°C° 0 mm 3 m/S 740 mmHg 89%
    08:00 +18°C° 0 mm 3 m/S 740 mmHg 85%
    09:00 +20°C° 0.1 mm 3 m/S 740 mmHg 79%
    10:00 +21°C° 0.1 mm 4 m/S 740 mmHg 74%
    11:00 +22°C° 0.1 mm 4 m/S 740 mmHg 68%
    12:00 +22°C° 1.1 mm 4 m/S 740 mmHg 70%
    13:00 +22°C° 1.1 mm 5 m/S 740 mmHg 72%
    14:00 +22°C° 1.1 mm 5 m/S 740 mmHg 74%
    15:00 +23°C° 0.7 mm 5 m/S 740 mmHg 74%
    16:00 +23°C° 0.7 mm 5 m/S 740 mmHg 74%
    17:00 +23°C° 0.7 mm 5 m/S 740 mmHg 74%
    18:00 +21°C° 0.5 mm 4 m/S 740 mmHg 79%
    19:00 +20°C° 0.5 mm 4 m/S 740 mmHg 83%
    20:00 +19°C° 0.5 mm 4 m/S 740 mmHg 88%
    21:00 +19°C° 0 mm 4 m/S 740 mmHg 90%
    22:00 +18°C° 0 mm 4 m/S 740 mmHg 92%
    23:00 +18°C° 0 mm 4 m/S 741 mmHg 94%

    25 Juli, Donnerstag

    Zeit Temperatur Niederschläge Wind Luftdruck Luftfeuchtigkeit
    00:00 +17°C° 0 mm 4 m/S 741 mmHg 94%
    01:00 +17°C° 0 mm 4 m/S 741 mmHg 95%
    02:00 +17°C° 0 mm 4 m/S 741 mmHg 96%
    03:00 +17°C° 0 mm 4 m/S 741 mmHg 97%
    04:00 +16°C° 0 mm 5 m/S 741 mmHg 97%
    05:00 +15°C° 0 mm 5 m/S 741 mmHg 97%
    06:00 +16°C° 0 mm 5 m/S 741 mmHg 93%
    07:00 +19°C° 0 mm 6 m/S 742 mmHg 90%
    08:00 +20°C° 0 mm 6 m/S 742 mmHg 86%
    09:00 +21°C° 0 mm 7 m/S 742 mmHg 79%
    10:00 +22°C° 0 mm 7 m/S 742 mmHg 73%
    11:00 +24°C° 0 mm 7 m/S 742 mmHg 66%
    12:00 +24°C° 0 mm 7 m/S 742 mmHg 64%
    13:00 +26°C° 0 mm 7 m/S 742 mmHg 61%
    14:00 +26°C° 0 mm 7 m/S 742 mmHg 59%
    15:00 +26°C° 0 mm 7 m/S 742 mmHg 60%
    16:00 +26°C° 0 mm 7 m/S 742 mmHg 61%
    17:00 +26°C° 0 mm 6 m/S 742 mmHg 63%
    18:00 +23°C° 0 mm 6 m/S 742 mmHg 66%
    19:00 +22°C° 0 mm 5 m/S 742 mmHg 69%
    20:00 +20°C° 0 mm 5 m/S 742 mmHg 72%
    21:00 +19°C° 0 mm 4 m/S 742 mmHg 74%
    22:00 +19°C° 0 mm 4 m/S 742 mmHg 76%
    23:00 +18°C° 0 mm 4 m/S 742 mmHg 78%

    26 Juli, Freitag

    Zeit Temperatur Niederschläge Wind Luftdruck Luftfeuchtigkeit
    00:00 +17°C° 0 mm 4 m/S 742 mmHg 82%
    01:00 +17°C° 0 mm 4 m/S 742 mmHg 85%
    02:00 +15°C° 0 mm 4 m/S 742 mmHg 89%
    03:00 +15°C° 0 mm 4 m/S 742 mmHg 90%
    04:00 +15°C° 0 mm 4 m/S 742 mmHg 91%
    05:00 +15°C° 0 mm 4 m/S 742 mmHg 92%
    06:00 +16°C° 0 mm 5 m/S 742 mmHg 87%
    07:00 +19°C° 0 mm 5 m/S 742 mmHg 82%
    08:00 +21°C° 0 mm 5 m/S 742 mmHg 78%
    09:00 +22°C° 0.1 mm 6 m/S 742 mmHg 74%
    10:00 +23°C° 0.1 mm 6 m/S 742 mmHg 71%
    11:00 +24°C° 0.1 mm 6 m/S 742 mmHg 68%
    12:00 +24°C° 0.4 mm 6 m/S 742 mmHg 70%
    13:00 +23°C° 0.4 mm 6 m/S 742 mmHg 71%
    14:00 +23°C° 0.4 mm 6 m/S 742 mmHg 73%
    15:00 +23°C° 0.3 mm 5 m/S 741 mmHg 73%
    16:00 +25°C° 0.3 mm 5 m/S 741 mmHg 74%
    17:00 +25°C° 0.3 mm 5 m/S 741 mmHg 74%
    18:00 +22°C° 0.1 mm 4 m/S 742 mmHg 80%
    19:00 +21°C° 0.1 mm 3 m/S 742 mmHg 86%
    20:00 +20°C° 0.1 mm 2 m/S 742 mmHg 92%
    21:00 +19°C° 0 mm 2 m/S 742 mmHg 92%
    22:00 +19°C° 0 mm 2 m/S 742 mmHg 93%
    23:00 +18°C° 0 mm 2 m/S 742 mmHg 93%
    Mehr zeigen